This demonstration page uses our WeatherBlox Daily Observations layout. Learn more.

Left ArrowRight Arrow

44.89941, -97.11507

Hourly Observations for June 8, 2021

Temp ( °F °C ) Dew Point ( °F °C ) Humidity (%) Winds ( mph kmh ) Pressure ( in mb ) Visibility ( mi km ) Precip ( " mm )
12:53 am 00:53 Clear 78 25.6 62 16.7 58 58 S 12 19 29.79 1009 10 16 0.00 0.00
1:53 am 01:53 Clear 76 24.4 62 16.7 62 62 ESE 5 7 29.85 1011 10 16 0.00 0.00
2:53 am 02:53 Clear 75 23.9 61 16.1 62 62 E 10 17 29.86 1011 10 16 0.00 0.00
3:53 am 03:53 Clear 70 21.1 60 15.6 71 71 E 12 19 29.86 1011 10 16 0.00 0.00
4:53 am 04:53 Clear 70 21.1 59 15 68 68 ESE 7 11 29.86 1011 10 16 0.00 0.00
5:53 am 05:53 Sunny 71 21.7 58 14.4 63 63 E 7 11 29.87 1012 10 16 0.00 0.00
6:53 am 06:53 Sunny 71 21.7 58 14.4 63 63 E 8 13 29.91 1013 10 16 0.00 0.00
7:53 am 07:53 Mostly Sunny 75 23.9 59 15 58 58 E 7 11 29.92 1013 10 16 0.00 0.00
8:53 am 08:53 Mostly Sunny 78 25.6 62 16.7 58 58 SE 8 13 29.92 1013 10 16 0.00 0.00
9:53 am 09:53 Sunny 83 28.3 63 17.2 51 51 ESE 10 17 29.93 1014 10 16 0.00 0.00
10:53 am 10:53 Sunny 85 29.4 65 18.3 51 51 SE 8 13 29.93 1014 10 16 0.00 0.00
11:53 am 11:53 Mostly Cloudy 87 30.6 64 17.8 46 46 SSE 13 20 29.93 1014 10 16 0.00 0.00
12:53 pm 12:53 Mostly Sunny 88 31.1 64 17.8 45 45 SSE 16 26 29.91 1013 10 16 0.00 0.00
1:53 pm 13:53 Mostly Sunny 91 32.8 62 16.7 38 38 SSE 13 20 29.91 1013 10 16 0.00 0.00
2:53 pm 14:53 Partly Cloudy 90 32.2 61 16.1 38 38 SE 13 20 29.90 1013 10 16 0.00 0.00
3:53 pm 15:53 Mostly Sunny 92 33.3 61 16.1 36 36 S 17 28 29.90 1012 10 16 0.00 0.00
4:53 pm 16:53 Sunny 92 33.3 60 15.6 34 34 S 15 24 29.88 1012 10 16 0.00 0.00
5:53 pm 17:53 Sunny 91 32.8 59 15 34 34 SSE 16 26 29.87 1012 10 16 0.00 0.00
6:53 pm 18:53 Sunny 89 31.7 60 15.6 38 38 S 12 19 29.86 1011 10 16 0.00 0.00
7:53 pm 19:53 Sunny 87 30.6 60 15.6 40 40 S 9 15 29.87 1012 10 16 0.00 0.00
8:53 pm 20:53 Sunny 82 27.8 61 16.1 49 49 S 7 11 29.89 1012 10 16 0.00 0.00
9:53 pm 21:53 Clear 80 26.7 61 16.1 52 52 Calm 29.90 1012 10 16 0.00 0.00
10:53 pm 22:53 Clear 79 26.1 60 15.6 52 52 ESE 3 6 29.90 1013 10 16 0.00 0.00
11:53 pm 23:53 Clear 75 23.9 60 15.6 60 60 SE 3 6 29.92 1013 10 16 0.00 0.00

Powered by AerisWeather